Preview of NWS' New Version of Forecast
This preview is not operational and should not be used for support decisions.

Regional Weather Roundup (RWR)

Issued by National Weather Service (NWS)

                            
000
ASUS45 KBOI 241510
RWRID 

IDAHO REGIONAL WEATHER ROUNDUP
NATIONAL WEATHER SERVICE BOISE ID
900 AM MDT MON JUN 24 2019

NOTE: "FAIR" INDICATES FEW OR NO CLOUDS BELOW 12000 FEET
WITH NO SIGNIFICANT WEATHER AND/OR OBSTRUCTIONS TO VISIBILITY

IDZ012-014-241600-
SOUTHWEST IDAHO

  
CITY           SKY/WX    TMP DP  RH WIND       PRES   REMARKS
BOISE          SUNNY     59  42  53 CALM      30.01S                  
CALDWELL       SUNNY     61  42  49 NW8       30.01S                  
MOUNTAIN HOME  SUNNY     62  38  41 W7        30.01R                  
$$

IDZ016-017-241600-
SOUTHCENTRAL IDAHO

  
CITY           SKY/WX    TMP DP  RH WIND       PRES   REMARKS
BURLEY         SUNNY     61  37  41 W14       30.01S                  
JEROME         SUNNY     58  40  51 W9        30.03S                  
TWIN FALLS     SUNNY     62  37  39 W10       30.03S                  
$$

IDZ019>023-241600-
SOUTHEAST IDAHO

  
CITY           SKY/WX    TMP DP  RH WIND       PRES   REMARKS
IDAHO FALLS    SUNNY     55  38  52 SW17      30.01S                  
POCATELLO      MOSUNNY   60  36  40 SW15G23   30.02S                  
REXBURG        SUNNY     56  37  49 S13       30.00S                  
$$

IDZ006-010-011-018-031-032-241600-
CENTRAL IDAHO MOUNTAINS

  
CITY           SKY/WX    TMP DP  RH WIND       PRES   REMARKS
MCCALL         SUNNY     49  37  63 CALM      30.01S                  
HAILEY         SUNNY     52  36  54 CALM      30.05R                  
STANLEY          N/A     47  30  51 CALM      30.06F                  
SALMON         SUNNY     56  41  57 N5        30.00F                  
CHALLIS        SUNNY     56  35  45 CALM      30.00F                  
$$

IDZ002-004-006-007-026-241600-
NORTHERN IDAHO

  
CITY           SKY/WX    TMP DP  RH WIND       PRES   REMARKS
LEWISTON       SUNNY     62  43  49 VRB3      29.98S                  
LOWELL           N/A     54  48  80 CALM      30.00F                  
COEUR D'ALENE  SUNNY     55  42  61 S10       29.98S                  
MULLAN PASS    CLOUDY    40  35  83 VRB3      30.00S                  
$$